TimeMDT,TemperatureF,Dew PointF,Humidity,Sea Level PressureIn,VisibilityMPH,Wind Direction,Wind SpeedMPH,Gust SpeedMPH,PrecipitationIn,Events,Conditions,WindDirDegrees,DateUTC
12:00 AM,33,16,35,,,South,18.4,,,,,170,2013-03-20 06:00:00
12:00 AM,31.3,15.8,53,-9999,-9999.0,South,18.4,-,N/A,,Unknown,170,2013-03-20 06:00:00
1:00 AM,33.6,14.0,45,-9999,-9999.0,South,20.7,-,N/A,,Unknown,170,2013-03-20 07:00:00
2:00 AM,33.4,13.5,44,-9999,-9999.0,South,24.2,-,N/A,,Unknown,170,2013-03-20 08:00:00
3:00 AM,33.3,13.8,45,-9999,-9999.0,South,20.7,-,N/A,,Unknown,170,2013-03-20 09:00:00
4:00 AM,33.4,14.9,47,-9999,-9999.0,South,19.6,-,N/A,,Unknown,170,2013-03-20 10:00:00
5:00 AM,31.3,15.4,52,-9999,-9999.0,South,21.9,-,N/A,,Unknown,170,2013-03-20 11:00:00
6:00 AM,32,17,41,,,SSE,13.8,,,,,160,2013-03-20 12:00:00
6:00 AM,31.8,17.4,55,-9999,-9999.0,SSE,13.8,-,N/A,,Unknown,160,2013-03-20 12:00:00
7:00 AM,31.6,17.4,56,-9999,-9999.0,South,15.0,-,N/A,,Unknown,170,2013-03-20 13:00:00
8:00 AM,33.1,19.4,57,-9999,-9999.0,South,13.8,-,N/A,,Unknown,170,2013-03-20 14:00:00
9:00 AM,39.6,24.6,55,-9999,-9999.0,SSW,17.3,-,N/A,,Unknown,200,2013-03-20 15:00:00
10:00 AM,44.1,26.6,50,-9999,-9999.0,South,19.6,-,N/A,,Unknown,190,2013-03-20 16:00:00
11:00 AM,47.8,29.3,49,-9999,-9999.0,South,19.6,-,N/A,,Unknown,180,2013-03-20 17:00:00
12:00 PM,52,30,31,,,South,19.6,,,,,190,2013-03-20 18:00:00
12:00 PM,51.6,30.4,44,-9999,-9999.0,South,19.6,-,N/A,,Unknown,190,2013-03-20 18:00:00
1:00 PM,53.8,31.8,43,-9999,-9999.0,South,19.6,-,N/A,,Unknown,180,2013-03-20 19:00:00
2:00 PM,56.5,30.6,37,-9999,-9999.0,SSW,19.6,-,N/A,,Unknown,210,2013-03-20 20:00:00
3:00 PM,55.4,31.5,40,-9999,-9999.0,SW,15.0,-,N/A,,Unknown,220,2013-03-20 21:00:00
4:00 PM,56.8,33.1,41,-9999,-9999.0,SSW,17.3,-,N/A,,Unknown,210,2013-03-20 22:00:00
5:00 PM,56.1,31.5,39,-9999,-9999.0,SW,17.3,-,N/A,,Unknown,220,2013-03-20 23:00:00
6:00 PM,55,30,27,,,SW,12.7,,,,,220,2013-03-21 00:00:00
6:00 PM,55.0,30.4,39,-9999,-9999.0,SW,12.7,-,N/A,,Unknown,220,2013-03-21 00:00:00
7:00 PM,49.1,33.1,54,-9999,-9999.0,South,8.1,-,N/A,,Unknown,180,2013-03-21 01:00:00
8:00 PM,43.9,33.6,67,-9999,-9999.0,South,13.8,-,N/A,,Unknown,190,2013-03-21 02:00:00
9:00 PM,43.3,33.8,69,-9999,-9999.0,South,16.1,-,N/A,,Unknown,190,2013-03-21 03:00:00
10:00 PM,43.7,30.2,59,-9999,-9999.0,SSW,16.1,-,N/A,,Unknown,200,2013-03-21 04:00:00
11:00 PM,42.4,30.0,61,-9999,-9999.0,SSW,17.3,-,N/A,,Unknown,200,2013-03-21 05:00:00